When you browse on this site, cookies collect data to enhance your experience and personalize the content and advertising you see.
Visit our Privacy Policy to learn more. By continuing to use the site, you agree to this use of cookies and data.
  • In Switzerland
  • List of Countries
  • For 7 days
  • Water Temperature
  • Satellite Maps
  • Weather Map
  • Weather Widgets
  • user-avatar
    Login

    Hourly Weather Satif

    Today, 21 March, Thursday

    Time Temperature Precipitation Wind Pressure Humidity
    00:00 +1°C° 0 mm 5 mps 671 mmHg 88%
    01:00 +1°C° 0.7 mm 6 mps 670 mmHg 89%
    02:00 +1°C° 0.7 mm 6 mps 670 mmHg 90%
    03:00 +1°C° 0.7 mm 6 mps 669 mmHg 91%
    04:00 0°C° 1 mm 7 mps 669 mmHg 91%
    05:00 +2°C° 1 mm 7 mps 669 mmHg 92%
    06:00 +1°C° 1 mm 8 mps 669 mmHg 92%
    07:00 +3°C° 1.7 mm 7 mps 669 mmHg 92%
    08:00 +3°C° 1.7 mm 7 mps 669 mmHg 92%
    09:00 +4°C° 1.7 mm 6 mps 669 mmHg 92%
    10:00 +4°C° 2.1 mm 7 mps 669 mmHg 91%
    11:00 +5°C° 2.1 mm 7 mps 669 mmHg 91%
    12:00 +5°C° 2.1 mm 8 mps 669 mmHg 91%
    13:00 +5°C° 3.1 mm 7 mps 669 mmHg 92%
    14:00 +5°C° 3.1 mm 6 mps 669 mmHg 93%
    15:00 +4°C° 3.1 mm 6 mps 669 mmHg 94%
    16:00 +4°C° 2 mm 6 mps 669 mmHg 94%
    17:00 +5°C° 2 mm 5 mps 670 mmHg 94%
    18:00 +5°C° 2 mm 5 mps 670 mmHg 95%
    19:00 +5°C° 1.2 mm 5 mps 670 mmHg 95%
    20:00 +5°C° 1.2 mm 5 mps 670 mmHg 95%
    21:00 +4°C° 1.2 mm 6 mps 671 mmHg 95%
    22:00 +5°C° 1 mm 5 mps 671 mmHg 95%
    23:00 +5°C° 1 mm 5 mps 671 mmHg 95%

    Tomorrow, 22 March, Friday

    Time Temperature Precipitation Wind Pressure Humidity
    00:00 +5°C° 1 mm 5 mps 671 mmHg 95%
    01:00 +5°C° 1.2 mm 4 mps 671 mmHg 96%
    02:00 +5°C° 1.2 mm 4 mps 671 mmHg 96%
    03:00 +5°C° 1.2 mm 4 mps 671 mmHg 96%
    04:00 +5°C° 1.5 mm 4 mps 671 mmHg 96%
    05:00 +5°C° 1.5 mm 3 mps 671 mmHg 96%
    06:00 +5°C° 1.5 mm 3 mps 671 mmHg 96%
    07:00 +5°C° 1.8 mm 3 mps 671 mmHg 95%
    08:00 +7°C° 1.8 mm 3 mps 672 mmHg 94%
    09:00 +7°C° 1.8 mm 3 mps 672 mmHg 93%
    10:00 +7°C° 1.2 mm 2 mps 672 mmHg 92%
    11:00 +7°C° 1.2 mm 2 mps 672 mmHg 90%
    12:00 +7°C° 1.2 mm 2 mps 672 mmHg 89%
    13:00 +8°C° 0.6 mm 2 mps 672 mmHg 85%
    14:00 +8°C° 0.6 mm 3 mps 672 mmHg 81%
    15:00 +9°C° 0.6 mm 3 mps 672 mmHg 77%
    16:00 +8°C° 0.1 mm 3 mps 672 mmHg 79%
    17:00 +7°C° 0.1 mm 3 mps 672 mmHg 81%
    18:00 +7°C° 0.1 mm 3 mps 672 mmHg 84%
    19:00 +5°C° 0 mm 3 mps 673 mmHg 87%
    20:00 +6°C° 0 mm 2 mps 673 mmHg 90%
    21:00 +5°C° 0 mm 2 mps 674 mmHg 93%
    22:00 +5°C° 0 mm 2 mps 673 mmHg 94%
    23:00 +4°C° 0 mm 2 mps 673 mmHg 94%

    Day after tomorrow, 23 March, Saturday

    Time Temperature Precipitation Wind Pressure Humidity
    00:00 +5°C° 0 mm 1 mps 673 mmHg 95%
    01:00 +4°C° 0.1 mm 2 mps 673 mmHg 95%
    02:00 +4°C° 0.1 mm 2 mps 673 mmHg 95%
    03:00 +4°C° 0.1 mm 2 mps 673 mmHg 95%
    04:00 +4°C° 0.3 mm 2 mps 673 mmHg 95%
    05:00 +4°C° 0.3 mm 2 mps 673 mmHg 94%
    06:00 +4°C° 0.3 mm 2 mps 673 mmHg 94%
    07:00 +5°C° 0.2 mm 2 mps 674 mmHg 91%
    08:00 +6°C° 0.2 mm 2 mps 674 mmHg 88%
    09:00 +6°C° 0.2 mm 2 mps 674 mmHg 85%
    10:00 +7°C° 0.1 mm 2 mps 674 mmHg 84%
    11:00 +8°C° 0.1 mm 2 mps 674 mmHg 82%
    12:00 +8°C° 0.1 mm 3 mps 674 mmHg 81%
    13:00 +9°C° 0.1 mm 3 mps 674 mmHg 79%
    14:00 +9°C° 0.1 mm 3 mps 674 mmHg 78%
    15:00 +10°C° 0.1 mm 3 mps 674 mmHg 77%
    16:00 +9°C° 0.1 mm 3 mps 674 mmHg 81%
    17:00 +8°C° 0.1 mm 3 mps 674 mmHg 85%
    18:00 +8°C° 0.1 mm 2 mps 674 mmHg 88%
    19:00 +7°C° 0 mm 2 mps 674 mmHg 90%
    20:00 +7°C° 0 mm 2 mps 675 mmHg 92%
    21:00 +8°C° 0 mm 1 mps 675 mmHg 94%
    22:00 +7°C° 0 mm 1 mps 675 mmHg 94%
    23:00 +7°C° 0 mm 1 mps 674 mmHg 94%

    24 March, Sunday

    Time Temperature Precipitation Wind Pressure Humidity
    00:00 +6°C° 0 mm 1 mps 674 mmHg 94%
    01:00 +6°C° 0 mm 1 mps 674 mmHg 94%
    02:00 +6°C° 0 mm 1 mps 674 mmHg 94%
    03:00 +6°C° 0 mm 1 mps 674 mmHg 94%
    04:00 +5°C° 0 mm 1 mps 674 mmHg 93%
    05:00 +5°C° 0 mm 1 mps 674 mmHg 92%
    06:00 +5°C° 0 mm 1 mps 674 mmHg 92%
    07:00 +7°C° 0 mm 1 mps 674 mmHg 82%
    08:00 +8°C° 0 mm 2 mps 675 mmHg 73%
    09:00 +10°C° 0 mm 2 mps 676 mmHg 64%
    10:00 +12°C° 0 mm 2 mps 676 mmHg 58%
    11:00 +13°C° 0 mm 2 mps 676 mmHg 52%
    12:00 +14°C° 0 mm 2 mps 676 mmHg 47%
    13:00 +14°C° 0 mm 2 mps 676 mmHg 47%
    14:00 +14°C° 0 mm 2 mps 675 mmHg 47%
    15:00 +14°C° 0 mm 2 mps 675 mmHg 48%
    16:00 +13°C° 0.1 mm 1 mps 675 mmHg 54%
    17:00 +12°C° 0.1 mm 1 mps 675 mmHg 59%
    18:00 +12°C° 0.1 mm 1 mps 674 mmHg 65%
    19:00 +11°C° 0 mm 1 mps 674 mmHg 67%
    20:00 +10°C° 0 mm 1 mps 674 mmHg 68%
    21:00 +9°C° 0 mm 1 mps 675 mmHg 70%
    22:00 +9°C° 0 mm 1 mps 674 mmHg 71%
    23:00 +9°C° 0 mm 1 mps 674 mmHg 71%

    25 March, Monday

    Time Temperature Precipitation Wind Pressure Humidity
    00:00 +8°C° 0 mm 1 mps 674 mmHg 72%
    01:00 +8°C° 0 mm 1 mps 673 mmHg 72%
    02:00 +8°C° 0 mm 1 mps 673 mmHg 72%
    03:00 +7°C° 0 mm 2 mps 673 mmHg 72%
    04:00 +8°C° 0 mm 1 mps 673 mmHg 73%
    05:00 +7°C° 0 mm 1 mps 673 mmHg 74%
    06:00 +7°C° 0 mm 1 mps 673 mmHg 75%
    07:00 +9°C° 0 mm 1 mps 673 mmHg 68%
    08:00 +11°C° 0 mm 1 mps 674 mmHg 60%
    09:00 +13°C° 0 mm 2 mps 675 mmHg 53%
    10:00 +13°C° 0 mm 1 mps 675 mmHg 50%
    11:00 +14°C° 0 mm 1 mps 675 mmHg 48%
    12:00 +15°C° 0 mm 1 mps 675 mmHg 45%
    13:00 +15°C° 0.1 mm 1 mps 674 mmHg 47%
    14:00 +15°C° 0.1 mm 1 mps 674 mmHg 48%
    15:00 +15°C° 0.1 mm 2 mps 673 mmHg 50%
    16:00 +14°C° 0.1 mm 2 mps 673 mmHg 57%
    17:00 +13°C° 0.1 mm 2 mps 673 mmHg 64%
    18:00 +12°C° 0.1 mm 2 mps 673 mmHg 71%
    19:00 +10°C° 0 mm 2 mps 673 mmHg 77%
    20:00 +10°C° 0 mm 1 mps 673 mmHg 82%
    21:00 +9°C° 0 mm 1 mps 673 mmHg 88%
    22:00 +9°C° 0 mm 1 mps 673 mmHg 89%
    23:00 +8°C° 0 mm 1 mps 672 mmHg 90%

    26 March, Tuesday

    Time Temperature Precipitation Wind Pressure Humidity
    00:00 +7°C° 0 mm 0 mps 672 mmHg 90%
    01:00 +7°C° 0 mm 0 mps 672 mmHg 90%
    02:00 +6°C° 0 mm 0 mps 672 mmHg 90%
    03:00 +6°C° 0 mm 0 mps 671 mmHg 90%
    04:00 +6°C° 0 mm 0 mps 671 mmHg 90%
    05:00 +6°C° 0 mm 0 mps 671 mmHg 90%
    06:00 +6°C° 0 mm 0 mps 671 mmHg 89%
    07:00 +8°C° 0 mm 0 mps 672 mmHg 79%
    08:00 +10°C° 0 mm 0 mps 673 mmHg 68%
    09:00 +12°C° 0 mm 0 mps 674 mmHg 57%
    10:00 +14°C° 0 mm 1 mps 674 mmHg 51%
    11:00 +15°C° 0 mm 1 mps 674 mmHg 45%
    12:00 +16°C° 0 mm 1 mps 674 mmHg 39%
    13:00 +16°C° 0 mm 1 mps 674 mmHg 40%
    14:00 +17°C° 0 mm 2 mps 673 mmHg 41%
    15:00 +17°C° 0 mm 3 mps 673 mmHg 42%
    16:00 +14°C° 0 mm 3 mps 673 mmHg 51%
    17:00 +13°C° 0 mm 3 mps 673 mmHg 60%
    18:00 +11°C° 0 mm 3 mps 673 mmHg 68%
    19:00 +10°C° 0 mm 2 mps 673 mmHg 73%
    20:00 +9°C° 0 mm 2 mps 673 mmHg 77%
    21:00 +10°C° 0 mm 1 mps 673 mmHg 81%
    22:00 +9°C° 0 mm 1 mps 673 mmHg 82%
    23:00 +9°C° 0 mm 1 mps 673 mmHg 82%
    Show more